Regional Weather Roundup
Issued by NWS

Home | Current Version | Previous Version | Text Only | Print | Product List | Glossary Off
Versions: 1 2 3 4 5 6 7 8 9 10 11 12 13 14 15 16 17 18 19 20 21 22 23 24 25 26 27 28 29 30 31 32 33 34 35 36 37 38 39 40 41 42 43 44 45 46 47 48 49 50

000
ASUS43 KFSD 251010
RWRSD

WEATHER ROUNDUP FOR SOUTH DAKOTA
NATIONAL WEATHER SERVICE SIOUX FALLS SD
500 AM CDT FRI JUL 25 2014

NOTE: "FAIR" INDICATES FEW OR NO CLOUDS BELOW 12,000 FEET WITH NO
SIGNIFICANT WEATHER AND/OR OBSTRUCTIONS TO VISIBILITY.


SDZ001>005-009-010-012>017-251100-
NORTHWEST AND NORTH CENTRAL SOUTH DAKOTA

CITY           SKY/WX    TMP DP  RH WIND       PRES   REMARKS
BUFFALO          N/A     59  44  57 NW6       29.86R
FAITH            N/A     64  57  78 NW15      29.84R
MOBRIDGE       PTCLDY    66  64  93 N8        29.74R
$$

SDZ012>016-024>037-041>051-057-063-072>074-251100-
SOUTHWEST AND SOUTH CENTRAL SOUTH DAKOTA

CITY           SKY/WX    TMP DP  RH WIND       PRES   REMARKS
RAPID CTY ARPT CLEAR     65  42  43 NW21G29   29.90R
PIERRE         CLEAR     69  66  90 NW17      29.70R
CUSTER         CLEAR     63  54  72 N12G21    30.02R
ELLSWORTH AFB  CLEAR     65  42  42 NW16G26   29.91R
PHILIP         CLEAR     70  60  70 NW17      29.77R
PINE RIDGE     CLEAR     68  62  81 NW6       29.89R
WINNER         FAIR      70  64  81 S8        29.69F
$$

SDZ004>011-016>023-039-040-251100-
NORTHEAST SOUTH DAKOTA

CITY           SKY/WX    TMP DP  RH WIND       PRES   REMARKS
ABERDEEN       MOCLDY    66  65  96 S14       29.68R
WATERTOWN      CLOUDY    65  62  90 S13G24    29.73S
SISSETON         N/A     64  64 100 SE8       29.68F
$$

SDZ017-020-022-023-036>040-048>070-251100-
SOUTHEAST SOUTH DAKOTA

CITY           SKY/WX    TMP DP  RH WIND       PRES   REMARKS
SIOUX FALLS    MOCLDY    65  61  87 SE18      29.77F
HURON          PTCLDY    69  63  81 S9        29.65F
CHAMBERLAIN    CLEAR     65  63  91 SE7       29.69F
MITCHELL       PTCLDY    68  64  87 SE10      29.72S
YANKTON        CLEAR     73  66  78 NE5       29.74R
$$

ABBREVIATIONS USED IN REMARKS
   TC - TEMPERATURE IN CELSIUS
  WCI - WIND CHILL INDEX
   HX - HEAT INDEX
  VSB - VISIBILITY



USA.gov is the U.S. government's official web portal to all federal, state and local government web resources and services.